Waarnemingen

Advertentie
Mijn weer
Toledo, Spanje (8272): temperatuur & dauwpunt: 08.07.2020 15:00:00 - 14.07.2020 15:00:00 (CEST)Toledo, Spanje (8272): windsnelheid: 08.07.2020 15:00:00 - 14.07.2020 15:00:00 (CEST)Toledo, Spanje (8272): windrichting: 08.07.2020 15:00:00 - 14.07.2020 15:00:00 (CEST)Toledo, Spanje (8272): luchtdruk: 08.07.2020 15:00:00 - 14.07.2020 15:00:00 (CEST)Toledo, Spanje (8272): zicht: 08.07.2020 15:00:00 - 14.07.2020 15:00:00 (CEST)Toledo, Spanje (8272): neerslag: 08.07.2020 15:00:00 - 14.07.2020 15:00:00 (CEST)
Datum & Tijd tt [°C] td [°C] ff [km/u] ff [kn] dd ppp [hPa] vv [km] rr [mm]
14.07.2020 15:00:00 - - - - - - - -
14.07.2020 14:00:00 31,4 13,2 11 6 OZO 1011,4 20 -
14.07.2020 13:00:00 30,0 12,9 8 4 O 1012,5 20 0,0
14.07.2020 12:00:00 27,2 13,2 8 4 ONO 1013,6 20 0,0
14.07.2020 11:00:00 26,1 13,2 11 6 OZO 1013,9 20 -
14.07.2020 10:00:00 25,0 10,5 13 7 O 1014,8 20 0,0
14.07.2020 09:00:00 22,8 9,6 11 6 O 1015,5 20 0,0
14.07.2020 08:00:00 21,2 11,2 8 4 OZO 1015,6 20 -
14.07.2020 07:00:00 21,5 11,5 4 2 ZO 1015,6 20 0,0
14.07.2020 06:00:00 22,3 12,5 9 5 ONO 1015,2 20 0,0
14.07.2020 05:00:00 23,1 11,8 15 8 NO 1015,0 20 -
14.07.2020 04:00:00 24,2 12,2 18 10 NO 1014,8 20 0,0
14.07.2020 03:00:00 25,4 12,3 24 13 NO 1014,6 20 0,0
14.07.2020 02:00:00 26,9 12,5 16 9 NO 1014,3 20 -
14.07.2020 01:00:00 28,6 11,2 15 8 NO 1013,9 20 0,0
14.07.2020 00:00:00 29,7 10,3 13 7 NNO 1013,3 20 0,0
13.07.2020 23:00:00 30,5 10,5 5 3 ONO 1012,6 20 -
13.07.2020 22:00:00 31,7 10,4 5 3 O 1012,1 20 0,0
13.07.2020 21:00:00 33,7 10,9 8 4 OZO 1011,5 20 0,0
13.07.2020 20:00:00 35,0 10,8 11 6 OZO 1011,2 20 -
13.07.2020 19:00:00 36,1 9,6 9 5 NW 1011,1 20 0,0
13.07.2020 18:00:00 35,8 11,4 13 7 NNO 1011,7 20 0,0
13.07.2020 17:00:00 35,5 12,5 11 6 NO 1012,4 20 -
13.07.2020 16:00:00 34,9 12,5 11 6 N 1013,0 20 0,0
13.07.2020 15:00:00 34,1 11,9 11 6 ONO 1014,0 20 0,0
13.07.2020 14:00:00 32,6 13,3 13 7 NNO 1014,7 20 -
13.07.2020 13:00:00 31,3 14,4 9 5 ONO 1015,8 20 0,0
13.07.2020 12:00:00 29,2 15,0 11 6 ONO 1016,5 20 0,0
13.07.2020 11:00:00 27,1 14,5 9 5 O 1017,0 20 -
13.07.2020 10:00:00 24,7 14,8 13 7 ZO 1017,4 20 0,0
13.07.2020 09:00:00 21,9 14,3 8 4 ZO 1018,0 20 0,0
13.07.2020 08:00:00 19,4 14,2 8 4 OZO 1018,1 20 -
13.07.2020 07:00:00 19,2 14,0 4 2 OZO 1017,8 20 0,0
13.07.2020 06:00:00 20,1 14,0 2 1 OZO 1017,2 20 0,0
13.07.2020 05:00:00 21,2 13,6 4 2 OZO 1016,6 20 -
13.07.2020 04:00:00 22,0 14,1 11 6 O 1016,3 20 0,0
13.07.2020 03:00:00 22,7 14,3 15 8 ONO 1016,6 20 0,0
13.07.2020 02:00:00 23,3 14,6 16 9 ONO 1016,5 20 -
13.07.2020 01:00:00 24,2 15,4 18 10 O 1016,2 20 0,0
13.07.2020 00:00:00 25,4 15,7 21 11 O 1015,5 20 0,0
12.07.2020 23:00:00 27,2 15,2 26 14 O 1014,9 20 -
12.07.2020 22:00:00 28,3 15,6 24 13 O 1013,3 20 0,0
12.07.2020 21:00:00 29,9 14,4 26 14 O 1012,5 20 0,0
12.07.2020 20:00:00 32,3 14,4 18 10 O 1010,9 20 -
12.07.2020 19:00:00 33,8 13,3 9 5 ONO 1010,6 20 0,0
12.07.2020 18:00:00 35,4 11,8 11 6 W 1009,9 20 0,0
12.07.2020 17:00:00 36,3 11,9 18 10 WNW 1009,9 20 -
12.07.2020 16:00:00 36,0 12,9 16 9 NNW 1010,4 20 0,0
12.07.2020 15:00:00 33,9 12,8 15 8 NNW 1011,5 20 0,0
12.07.2020 14:00:00 34,9 13,1 11 6 NNO 1011,3 20 -
12.07.2020 13:00:00 32,8 13,9 15 8 NNO 1012,0 20 0,0
12.07.2020 12:00:00 31,8 14,4 13 7 ONO 1012,2 20 0,0
12.07.2020 11:00:00 29,2 15,3 22 12 O 1012,7 20 -
12.07.2020 10:00:00 25,8 15,2 24 13 O 1013,4 20 0,0
12.07.2020 09:00:00 23,9 15,1 24 13 O 1014,1 20 0,0
12.07.2020 08:00:00 22,6 15,2 21 11 O 1013,9 20 -
12.07.2020 07:00:00 23,8 14,5 13 7 ONO 1013,0 20 0,0
12.07.2020 06:00:00 24,4 13,9 16 9 O 1012,6 20 0,0
12.07.2020 05:00:00 25,0 13,5 24 13 O 1011,6 20 -
12.07.2020 04:00:00 26,1 13,9 16 9 O 1011,3 20 0,0
12.07.2020 03:00:00 26,9 14,3 11 6 O 1011,8 20 0,0
12.07.2020 02:00:00 28,1 14,7 18 10 OZO 1010,6 20 -
12.07.2020 01:00:00 29,2 13,4 26 14 O 1010,0 20 0,0
12.07.2020 00:00:00 30,3 14,4 21 11 OZO 1010,0 20 0,0
11.07.2020 23:00:00 32,0 13,7 29 16 ZO 1009,7 20 -
11.07.2020 22:00:00 33,3 11,2 18 10 OZO 1009,3 20 0,0
11.07.2020 21:00:00 35,1 10,2 22 12 ZO 1008,3 20 0,0
11.07.2020 20:00:00 36,9 9,5 18 10 ZO 1007,8 20 -
11.07.2020 19:00:00 37,7 10,1 11 6 ONO 1007,9 20 0,0
11.07.2020 18:00:00 38,0 10,4 5 3 W 1008,5 20 0,0
11.07.2020 17:00:00 37,0 10,3 9 5 O 1009,0 20 -
11.07.2020 16:00:00 37,0 11,1 11 6 O 1009,5 20 0,0
11.07.2020 15:00:00 37,2 11,9 13 7 ZZO 1010,1 20 0,0
11.07.2020 14:00:00 35,2 12,8 13 7 OZO 1011,4 20 -
11.07.2020 13:00:00 33,4 13,5 15 8 OZO 1012,1 20 0,0
11.07.2020 12:00:00 30,2 13,0 16 9 OZO 1013,4 20 0,0
11.07.2020 11:00:00 27,8 13,0 18 10 OZO 1014,0 20 -
11.07.2020 10:00:00 26,2 12,6 16 9 O 1014,3 20 0,0
11.07.2020 09:00:00 24,1 13,0 16 9 O 1014,6 20 0,0
11.07.2020 08:00:00 21,8 12,4 9 5 O 1014,8 20 -
11.07.2020 07:00:00 22,0 12,3 13 7 O 1014,2 20 0,0
11.07.2020 06:00:00 22,8 12,7 15 8 O 1013,4 20 0,0
11.07.2020 05:00:00 23,5 12,2 18 10 O 1012,8 20 -
11.07.2020 04:00:00 24,7 12,3 18 10 OZO 1012,6 20 0,0
11.07.2020 03:00:00 25,6 12,1 16 9 O 1012,3 20 0,0
11.07.2020 02:00:00 25,4 9,2 13 7 O 1012,3 20 -
11.07.2020 01:00:00 26,3 8,3 5 3 O 1011,9 20 0,0
11.07.2020 00:00:00 27,7 8,0 9 5 O 1011,4 20 0,0
10.07.2020 23:00:00 29,7 8,1 11 6 NO 1010,6 20 -
10.07.2020 22:00:00 31,0 8,7 9 5 NO 1009,9 20 0,0
10.07.2020 21:00:00 33,7 9,0 8 4 NO 1009,2 20 0,0
10.07.2020 20:00:00 34,9 9,3 11 6 NNO 1008,8 20 -
10.07.2020 19:00:00 35,2 8,9 9 5 NNO 1008,6 20 0,0
10.07.2020 18:00:00 35,5 9,8 9 5 WNW 1008,7 20 0,0
10.07.2020 17:00:00 35,1 8,8 13 7 WZW 1009,3 20 -
10.07.2020 16:00:00 34,6 9,8 9 5 ZW 1009,8 20 0,0
10.07.2020 15:00:00 33,2 9,9 8 4 ZZO 1010,9 20 0,0
10.07.2020 14:00:00 32,1 10,7 8 4 ZZO 1011,7 20 -
10.07.2020 13:00:00 30,0 13,3 11 6 ZZO 1012,5 20 0,0
10.07.2020 12:00:00 28,1 13,6 9 5 ZZO 1013,1 20 0,0
10.07.2020 11:00:00 25,9 12,7 11 6 ZO 1013,9 20 -
10.07.2020 10:00:00 23,4 13,8 11 6 OZO 1014,5 20 0,0
10.07.2020 09:00:00 21,3 13,7 9 5 O 1014,8 20 0,0
10.07.2020 08:00:00 18,5 13,4 9 5 O 1015,4 20 -
10.07.2020 07:00:00 18,2 13,3 5 3 OZO 1015,3 20 0,0
10.07.2020 06:00:00 18,4 13,0 5 3 O 1015,4 20 0,0
10.07.2020 05:00:00 19,4 13,3 2 1 ZZO 1015,2 20 -
10.07.2020 04:00:00 19,5 13,2 5 3 OZO 1015,3 20 0,0
10.07.2020 03:00:00 19,6 12,8 9 5 O 1015,5 20 0,0
10.07.2020 02:00:00 20,5 12,5 11 6 OZO 1015,7 20 -
10.07.2020 01:00:00 21,0 12,9 11 6 O 1016,2 20 0,0
10.07.2020 00:00:00 21,0 12,7 5 3 NNO 1015,6 20 0,0
09.07.2020 23:00:00 22,9 12,8 18 10 NW 1014,7 20 -
09.07.2020 22:00:00 23,1 13,0 11 6 O 1013,4 20 0,0
09.07.2020 21:00:00 23,3 14,0 34 18 O 1013,0 17 1,0
09.07.2020 20:00:00 30,7 11,6 37 20 NNO 1010,7 17 -
09.07.2020 19:00:00 36,2 4,5 11 6 WNW 1008,5 20 0,0
09.07.2020 18:00:00 36,2 5,5 15 8 NO 1008,8 20 0,0
09.07.2020 17:00:00 36,2 4,5 5 3 N 1009,7 20 -
09.07.2020 16:00:00 35,3 5,7 16 9 W 1010,4 20 0,0
09.07.2020 15:00:00 34,3 8,1 13 7 NNW 1011,4 20 0,0
09.07.2020 14:00:00 34,0 7,9 9 5 W 1012,0 20 -
09.07.2020 13:00:00 32,6 8,8 8 4 W 1012,8 20 0,0
09.07.2020 12:00:00 30,5 8,2 8 4 WZW 1013,5 20 0,0
09.07.2020 11:00:00 28,4 9,6 11 6 W 1014,2 20 -
09.07.2020 10:00:00 26,7 8,2 8 4 W 1014,6 20 0,0
09.07.2020 09:00:00 23,4 7,9 5 3 W 1014,7 20 0,0
09.07.2020 08:00:00 20,3 13,3 2 1 N 1014,8 20 -
09.07.2020 07:00:00 21,3 14,2 2 1 OZO 1013,9 20 0,0
09.07.2020 06:00:00 22,0 14,4 5 3 O 1013,3 20 0,0
09.07.2020 05:00:00 22,8 13,6 2 1 ONO 1012,6 20 -
09.07.2020 04:00:00 24,3 13,8 11 6 O 1012,1 20 0,0
09.07.2020 03:00:00 26,5 13,6 15 8 O 1011,9 20 0,0
09.07.2020 02:00:00 27,1 13,1 13 7 O 1012,0 20 -
09.07.2020 01:00:00 28,1 13,6 22 12 Z 1011,4 20 0,0
09.07.2020 00:00:00 28,6 13,3 28 15 ZZO 1010,9 20 0,0
08.07.2020 23:00:00 29,4 11,9 28 15 ZZO 1010,1 20 -
08.07.2020 22:00:00 30,7 12,1 28 15 ZZO 1008,5 20 0,0
08.07.2020 21:00:00 31,8 11,0 24 13 ZO 1007,6 20 0,0
08.07.2020 20:00:00 33,8 11,0 29 16 ZO 1006,6 20 -
08.07.2020 19:00:00 37,3 5,3 29 16 Z 1006,1 20 0,0
08.07.2020 18:00:00 36,9 6,0 28 15 Z 1006,3 20 0,0
08.07.2020 17:00:00 36,9 10,2 21 11 Z 1006,5 20 -
08.07.2020 16:00:00 37,8 11,0 16 9 ZO 1007,4 20 0,0
08.07.2020 15:00:00 34,7 10,5 21 11 ZO 1008,9 20 0,0

tt = temperatuur
td = dauwpunt
ff = windsnelheid
dd = windrichting
ppp = luchtdruk
vv = zicht
rr = neerslag

Weerstations in de omgeving